Time,TemperatureF,DewpointF,PressureIn,WindDirection,WindDirectionDegrees,WindSpeedMPH,WindSpeedGustMPH,Humidity,HourlyPrecipIn,Conditions,Clouds,dailyrainin,SoftwareType,DateUTC
2013-05-29 00:04:00,71.2,67.5,26.71,East,90,8.1,8.1,88,0.00,CLR,,0.00,WeatherDisplay:10.37,2013-05-29 05:04:00,
2013-05-29 00:09:00,71.2,67.8,26.71,SE,135,5.8,5.8,89,0.00,CLR,,0.00,WeatherDisplay:10.37,2013-05-29 05:09:00,
2013-05-29 00:15:00,71.1,67.7,26.70,South,180,8.1,8.1,89,0.00,CLR,,0.00,WeatherDisplay:10.37,2013-05-29 05:15:00,
2013-05-29 00:20:00,70.9,67.5,26.69,SW,225,10.4,10.4,89,0.00,CLR,,0.00,WeatherDisplay:10.37,2013-05-29 05:20:00,
2013-05-29 00:25:00,70.7,67.6,26.68,South,180,5.8,5.8,90,0.00,CLR,,0.00,WeatherDisplay:10.37,2013-05-29 05:25:00,
2013-05-29 00:30:00,70.5,67.4,26.69,South,180,5.8,5.8,90,0.00,CLR,,0.00,WeatherDisplay:10.37,2013-05-29 05:30:00,
2013-05-29 00:36:00,70.2,67.4,26.70,North,0,5.8,5.8,91,0.00,CLR,,0.00,WeatherDisplay:10.37,2013-05-29 05:36:00,
2013-05-29 00:41:00,70.2,67.4,26.70,South,180,3.5,3.5,91,0.00,CLR,,0.00,WeatherDisplay:10.37,2013-05-29 05:41:00,
2013-05-29 00:46:00,69.8,67.1,26.70,SE,135,3.5,3.5,91,0.00,CLR,,0.00,WeatherDisplay:10.37,2013-05-29 05:46:00,
2013-05-29 00:52:00,69.6,67.2,26.69,SSE,158,2.3,2.3,92,0.00,CLR,,0.00,WeatherDisplay:10.37,2013-05-29 05:52:00,
2013-05-29 00:57:00,69.4,67.0,26.69,NW,315,3.5,3.5,92,0.00,CLR,,0.00,WeatherDisplay:10.37,2013-05-29 05:57:00,
2013-05-29 01:02:00,69.4,67.0,26.69,East,90,8.1,8.1,92,0.00,CLR,,0.00,WeatherDisplay:10.37,2013-05-29 06:02:00,
2013-05-29 01:07:00,69.1,66.7,26.70,East,90,8.1,0.0,92,0.00,CLR,,0.00,WeatherDisplay:10.37,2013-05-29 06:07:00,
2013-05-29 01:12:00,68.9,66.8,26.70,NW,315,4.6,4.6,93,0.00,CLR,,0.00,WeatherDisplay:10.37,2013-05-29 06:12:00,
2013-05-29 01:17:00,68.9,66.8,26.70,South,180,1.1,0.0,93,0.00,CLR,,0.00,WeatherDisplay:10.37,2013-05-29 06:17:00,
2013-05-29 01:23:00,68.5,66.4,26.70,South,180,1.1,0.0,93,0.00,CLR,,0.00,WeatherDisplay:10.37,2013-05-29 06:23:00,
2013-05-29 01:28:00,68.4,65.9,26.71,North,0,1.1,0.0,92,0.00,CLR,,0.00,WeatherDisplay:10.37,2013-05-29 06:28:00,
2013-05-29 01:33:00,68.4,66.3,26.72,NW,315,1.1,1.1,93,0.00,CLR,,0.00,WeatherDisplay:10.37,2013-05-29 06:33:00,
2013-05-29 01:38:00,68.0,65.9,26.72,North,0,2.3,0.0,93,0.00,CLR,,0.00,WeatherDisplay:10.37,2013-05-29 06:38:00,
2013-05-29 01:43:00,67.8,66.0,26.73,North,0,1.1,1.6,94,0.00,CLR,,0.00,WeatherDisplay:10.37,2013-05-29 06:43:00,
2013-05-29 01:49:00,67.8,66.0,26.73,North,0,3.5,3.5,94,0.00,CLR,,0.00,WeatherDisplay:10.37,2013-05-29 06:49:00,
2013-05-29 01:54:00,67.6,65.9,26.74,North,0,4.6,4.6,94,0.00,CLR,,0.00,WeatherDisplay:10.37,2013-05-29 06:54:00,
2013-05-29 01:59:00,67.6,65.2,26.75,NW,315,15.0,15.0,92,0.00,CLR,,0.00,WeatherDisplay:10.37,2013-05-29 06:59:00,
2013-05-29 02:04:00,65.8,61.2,26.76,East,90,8.1,8.1,85,0.00,CLR,,0.00,WeatherDisplay:10.37,2013-05-29 07:04:00,
2013-05-29 02:09:00,65.1,60.5,26.76,NW,315,10.4,10.4,85,0.00,CLR,,0.00,WeatherDisplay:10.37,2013-05-29 07:09:00,
2013-05-29 02:15:00,64.9,60.3,26.77,NW,315,5.8,5.8,85,0.00,CLR,,0.00,WeatherDisplay:10.37,2013-05-29 07:15:00,
2013-05-29 02:20:00,64.6,59.0,26.78,NW,315,10.4,10.4,82,0.00,CLR,,0.00,WeatherDisplay:10.37,2013-05-29 07:20:00,
2013-05-29 02:25:00,63.7,58.1,26.78,NW,315,10.4,10.4,82,0.00,CLR,,0.00,WeatherDisplay:10.37,2013-05-29 07:25:00,
2013-05-29 02:30:00,63.3,57.7,26.78,North,0,10.4,10.4,82,0.00,CLR,,0.00,WeatherDisplay:10.37,2013-05-29 07:30:00,
2013-05-29 02:36:00,62.8,57.2,26.77,NW,315,9.2,9.2,82,0.00,CLR,,0.00,WeatherDisplay:10.37,2013-05-29 07:36:00,
2013-05-29 02:41:00,62.8,56.9,26.77,WNW,292,6.9,6.9,81,0.00,CLR,,0.00,WeatherDisplay:10.37,2013-05-29 07:41:00,
2013-05-29 02:46:00,62.4,56.5,26.77,NNW,338,8.1,8.1,81,0.00,CLR,,0.00,WeatherDisplay:10.37,2013-05-29 07:46:00,
2013-05-29 02:51:00,62.1,55.8,26.76,NW,315,15.0,15.0,80,0.00,CLR,,0.00,WeatherDisplay:10.37,2013-05-29 07:51:00,
2013-05-29 02:57:00,61.7,55.1,26.76,NW,315,8.1,8.1,79,0.00,CLR,,0.00,WeatherDisplay:10.37,2013-05-29 07:57:00,
2013-05-29 03:02:00,61.5,55.3,26.76,North,0,10.4,10.4,80,0.00,CLR,,0.00,WeatherDisplay:10.37,2013-05-29 08:02:00,
2013-05-29 03:07:00,61.5,55.3,26.76,North,0,10.4,10.4,80,0.00,CLR,,0.00,WeatherDisplay:10.37,2013-05-29 08:07:00,
2013-05-29 03:12:00,61.2,54.6,26.75,West,270,5.8,5.8,79,0.00,CLR,,0.00,WeatherDisplay:10.37,2013-05-29 08:12:00,
2013-05-29 03:17:00,61.2,54.9,26.74,NE,45,5.8,5.8,80,0.00,CLR,,0.00,WeatherDisplay:10.37,2013-05-29 08:17:00,
2013-05-29 03:22:00,61.0,54.8,26.75,NNW,338,8.1,8.1,80,0.00,CLR,,0.00,WeatherDisplay:10.37,2013-05-29 08:22:00,
2013-05-29 03:27:00,61.0,54.8,26.75,NW,315,5.8,5.8,80,0.00,CLR,,0.00,WeatherDisplay:10.37,2013-05-29 08:27:00,
2013-05-29 03:33:00,61.0,54.8,26.74,SW,225,5.8,5.8,80,0.00,CLR,,0.00,WeatherDisplay:10.37,2013-05-29 08:33:00,
2013-05-29 03:38:00,61.0,54.8,26.74,NW,315,8.1,8.1,80,0.00,CLR,,0.00,WeatherDisplay:10.37,2013-05-29 08:38:00,
2013-05-29 03:43:00,61.0,54.8,26.75,NW,315,11.5,11.5,80,0.00,CLR,,0.00,WeatherDisplay:10.37,2013-05-29 08:43:00,
2013-05-29 03:48:00,61.0,54.8,26.74,North,0,6.9,6.9,80,0.00,CLR,,0.00,WeatherDisplay:10.37,2013-05-29 08:48:00,
2013-05-29 03:53:00,61.0,54.8,26.74,West,270,5.8,5.8,80,0.00,CLR,,0.00,WeatherDisplay:10.37,2013-05-29 08:53:00,
2013-05-29 03:59:00,61.0,54.4,26.75,NW,315,6.9,6.9,79,0.00,CLR,,0.00,WeatherDisplay:10.37,2013-05-29 08:59:00,
2013-05-29 04:04:00,61.0,54.8,26.74,NE,45,3.5,3.5,80,0.00,CLR,,0.00,WeatherDisplay:10.37,2013-05-29 09:04:00,
2013-05-29 04:09:00,60.8,54.6,26.75,NW,315,5.8,5.8,80,0.00,CLR,,0.00,WeatherDisplay:10.37,2013-05-29 09:09:00,
2013-05-29 04:14:00,60.4,54.9,26.75,North,0,5.8,5.8,82,0.00,CLR,,0.00,WeatherDisplay:10.37,2013-05-29 09:14:00,
2013-05-29 04:19:00,60.4,55.3,26.75,North,0,2.3,2.3,83,0.00,CLR,,0.00,WeatherDisplay:10.37,2013-05-29 09:19:00,
2013-05-29 04:24:00,60.3,55.1,26.75,SW,225,2.3,2.3,83,0.00,CLR,,0.00,WeatherDisplay:10.37,2013-05-29 09:24:00,
2013-05-29 04:29:00,60.3,55.1,26.76,South,180,4.6,4.6,83,0.00,CLR,,0.00,WeatherDisplay:10.37,2013-05-29 09:29:00,
2013-05-29 04:35:00,60.1,54.9,26.76,NW,315,1.1,0.0,83,0.00,CLR,,0.00,WeatherDisplay:10.37,2013-05-29 09:35:00,
2013-05-29 04:40:00,60.1,55.2,26.76,South,180,1.1,1.1,84,0.00,CLR,,0.00,WeatherDisplay:10.37,2013-05-29 09:40:00,
2013-05-29 04:45:00,59.9,55.1,26.76,SW,225,3.5,3.5,84,0.00,CLR,,0.00,WeatherDisplay:10.37,2013-05-29 09:45:00,
2013-05-29 04:50:00,60.1,55.2,26.76,NNW,338,3.5,3.5,84,0.00,CLR,,0.00,WeatherDisplay:10.37,2013-05-29 09:50:00,
2013-05-29 04:55:00,60.3,55.4,26.76,NE,45,1.1,1.1,84,0.00,CLR,,0.00,WeatherDisplay:10.37,2013-05-29 09:55:00,
2013-05-29 05:01:00,60.3,55.1,26.77,NW,315,1.1,1.1,83,0.00,CLR,,0.00,WeatherDisplay:10.37,2013-05-29 10:01:00,
2013-05-29 05:06:00,60.3,55.1,26.77,NW,315,1.1,1.1,83,0.00,CLR,,0.00,WeatherDisplay:10.37,2013-05-29 10:06:00,
2013-05-29 05:11:00,60.4,55.3,26.77,South,180,3.5,0.0,83,0.00,CLR,,0.00,WeatherDisplay:10.37,2013-05-29 10:11:00,
2013-05-29 05:16:00,60.4,55.3,26.77,North,0,2.3,0.0,83,0.00,CLR,,0.00,WeatherDisplay:10.37,2013-05-29 10:16:00,
2013-05-29 05:21:00,60.4,54.9,26.77,NW,315,1.1,0.0,82,0.00,CLR,,0.00,WeatherDisplay:10.37,2013-05-29 10:21:00,
2013-05-29 05:27:00,60.6,55.4,26.77,South,180,2.3,2.3,83,0.00,CLR,,0.00,WeatherDisplay:10.37,2013-05-29 10:27:00,
2013-05-29 05:32:00,60.6,55.4,26.77,East,90,1.1,1.1,83,0.00,CLR,,0.00,WeatherDisplay:10.37,2013-05-29 10:32:00,
2013-05-29 05:37:00,60.6,55.4,26.76,SE,135,2.3,2.3,83,0.00,CLR,,0.00,WeatherDisplay:10.37,2013-05-29 10:37:00,
2013-05-29 05:42:00,60.6,55.1,26.76,NE,45,2.3,0.0,82,0.00,CLR,,0.00,WeatherDisplay:10.37,2013-05-29 10:42:00,
2013-05-29 05:47:00,60.4,55.3,26.77,South,180,1.1,1.6,83,0.00,CLR,,0.00,WeatherDisplay:10.37,2013-05-29 10:47:00,
2013-05-29 05:53:00,60.4,55.3,26.77,SW,225,1.1,0.0,83,0.00,CLR,,0.00,WeatherDisplay:10.37,2013-05-29 10:53:00,
2013-05-29 05:58:00,60.4,55.3,26.77,NE,45,2.3,2.3,83,0.00,CLR,,0.00,WeatherDisplay:10.37,2013-05-29 10:58:00,
2013-05-29 06:03:00,60.3,55.1,26.77,West,270,3.5,3.5,83,0.00,CLR,,0.00,WeatherDisplay:10.37,2013-05-29 11:03:00,
2013-05-29 06:08:00,60.3,55.1,26.77,SW,225,3.5,3.5,83,0.00,CLR,,0.00,WeatherDisplay:10.37,2013-05-29 11:08:00,
2013-05-29 06:13:00,60.3,55.1,26.77,North,0,3.5,3.5,83,0.00,CLR,,0.00,WeatherDisplay:10.37,2013-05-29 11:13:00,
2013-05-29 06:19:00,60.3,55.1,26.76,North,0,4.6,4.6,83,0.00,CLR,,0.00,WeatherDisplay:10.37,2013-05-29 11:19:00,
2013-05-29 06:24:00,76.1,50.0,26.97,East,90,5.8,5.8,40,0.00,CLR,,0.00,WeatherDisplay:10.37,2013-05-29 11:24:00,
2013-05-29 06:29:00,60.1,54.9,26.76,NW,315,3.5,3.5,83,0.00,CLR,,0.00,WeatherDisplay:10.37,2013-05-29 11:29:00,
2013-05-29 06:34:00,60.1,54.9,26.76,NNW,338,8.1,8.1,83,0.00,CLR,,0.00,WeatherDisplay:10.37,2013-05-29 11:34:00,
2013-05-29 06:39:00,60.1,54.9,26.75,NW,315,3.5,3.5,83,0.00,CLR,,0.00,WeatherDisplay:10.37,2013-05-29 11:39:00,
2013-05-29 06:44:00,60.1,54.9,26.75,WNW,292,3.5,3.5,83,0.00,CLR,,0.00,WeatherDisplay:10.37,2013-05-29 11:44:00,
2013-05-29 06:50:00,60.1,54.9,26.75,NW,315,5.8,5.8,83,0.00,CLR,,0.00,WeatherDisplay:10.37,2013-05-29 11:50:00,
2013-05-29 06:55:00,60.1,54.9,26.75,NE,45,2.3,2.3,83,0.00,CLR,,0.00,WeatherDisplay:10.37,2013-05-29 11:55:00,
2013-05-29 07:00:00,60.1,54.9,26.74,NW,315,5.8,5.8,83,0.00,CLR,,0.00,WeatherDisplay:10.37,2013-05-29 12:00:00,
2013-05-29 07:05:00,60.1,54.9,26.74,NW,315,3.5,3.5,83,0.00,CLR,,0.00,WeatherDisplay:10.37,2013-05-29 12:05:00,
2013-05-29 07:11:00,60.3,55.1,26.74,NNW,338,3.5,3.5,83,0.00,CLR,,0.00,WeatherDisplay:10.37,2013-05-29 12:11:00,
2013-05-29 07:16:00,60.3,55.1,26.74,East,90,6.9,6.9,83,0.00,CLR,,0.00,WeatherDisplay:10.37,2013-05-29 12:16:00,
2013-05-29 07:21:00,60.4,55.3,26.73,NW,315,2.3,2.3,83,0.00,CLR,,0.00,WeatherDisplay:10.37,2013-05-29 12:21:00,
2013-05-29 07:26:00,60.6,55.4,26.73,ENE,68,5.8,5.8,83,0.00,CLR,,0.00,WeatherDisplay:10.37,2013-05-29 12:26:00,
2013-05-29 07:31:00,61.0,55.4,26.73,North,0,3.5,3.5,82,0.00,CLR,,0.00,WeatherDisplay:10.37,2013-05-29 12:31:00,
2013-05-29 07:37:00,61.2,55.6,26.73,East,90,4.6,4.6,82,0.00,CLR,,0.00,WeatherDisplay:10.37,2013-05-29 12:37:00,
2013-05-29 07:42:00,61.5,56.0,26.73,North,0,3.5,3.5,82,0.00,CLR,,0.00,WeatherDisplay:10.37,2013-05-29 12:42:00,
2013-05-29 07:47:00,62.1,56.5,26.73,NW,315,5.8,5.8,82,0.00,CLR,,0.00,WeatherDisplay:10.37,2013-05-29 12:47:00,
2013-05-29 07:52:00,62.2,56.3,26.73,East,90,2.3,2.3,81,0.00,CLR,,0.00,WeatherDisplay:10.37,2013-05-29 12:52:00,
2013-05-29 07:57:00,62.8,56.5,26.72,North,0,4.6,4.6,80,0.00,CLR,,0.00,WeatherDisplay:10.37,2013-05-29 12:57:00,
2013-05-29 08:03:00,63.5,57.2,26.72,SW,225,3.5,3.5,80,0.00,CLR,,0.00,WeatherDisplay:10.37,2013-05-29 13:03:00,
2013-05-29 08:08:00,64.0,57.4,26.72,NNW,338,1.1,1.1,79,0.00,CLR,,0.00,WeatherDisplay:10.37,2013-05-29 13:08:00,
2013-05-29 08:13:00,64.4,57.4,26.72,NNW,338,2.3,2.3,78,0.00,CLR,,0.00,WeatherDisplay:10.37,2013-05-29 13:13:00,
2013-05-29 08:18:00,64.4,57.4,26.72,North,0,1.1,1.1,78,0.00,CLR,,0.00,WeatherDisplay:10.37,2013-05-29 13:18:00,
2013-05-29 08:23:00,64.4,57.4,26.72,SW,225,1.1,0.0,78,0.00,CLR,,0.00,WeatherDisplay:10.37,2013-05-29 13:23:00,
2013-05-29 08:29:00,64.8,57.7,26.72,East,90,2.3,0.0,78,0.00,CLR,,0.00,WeatherDisplay:10.37,2013-05-29 13:29:00,
2013-05-29 08:35:00,66.2,58.8,26.71,NE,45,3.5,3.5,77,0.00,CLR,,0.00,WeatherDisplay:10.37,2013-05-29 13:35:00,
2013-05-29 08:40:00,67.1,59.3,26.70,NE,45,2.2,2.2,76,0.00,CLR,,0.00,WeatherDisplay:10.37,2013-05-29 13:40:00,
2013-05-29 08:46:00,68.2,59.6,26.70,South,180,3.5,3.5,74,0.00,CLR,,0.00,WeatherDisplay:10.37,2013-05-29 13:46:00,
2013-05-29 08:51:00,68.9,59.5,26.70,NE,45,3.5,3.5,72,0.00,CLR,,0.00,WeatherDisplay:10.37,2013-05-29 13:51:00,
2013-05-29 08:56:00,69.1,60.1,26.69,NW,315,3.5,3.5,73,0.00,CLR,,0.00,WeatherDisplay:10.37,2013-05-29 13:56:00,
2013-05-29 09:01:00,70.0,60.5,26.69,NE,45,3.5,3.5,72,0.00,CLR,,0.00,WeatherDisplay:10.37,2013-05-29 14:01:00,
2013-05-29 09:06:00,70.0,60.5,26.69,NE,45,3.5,3.5,72,0.00,CLR,,0.00,WeatherDisplay:10.37,2013-05-29 14:06:00,
2013-05-29 09:11:00,73.6,62.8,26.69,East,90,3.5,0.0,69,0.00,CLR,,0.00,WeatherDisplay:10.37,2013-05-29 14:11:00,
2013-05-29 09:16:00,74.7,63.0,26.69,North,0,5.8,5.8,67,0.00,CLR,,0.00,WeatherDisplay:10.37,2013-05-29 14:16:00,
2013-05-29 09:21:00,74.7,62.5,26.69,WNW,292,2.3,2.3,66,0.00,CLR,,0.00,WeatherDisplay:10.37,2013-05-29 14:21:00,
2013-05-29 09:27:00,73.8,61.7,26.69,South,180,5.8,5.8,66,0.00,CLR,,0.00,WeatherDisplay:10.37,2013-05-29 14:27:00,
2013-05-29 09:32:00,73.9,62.3,26.69,East,90,3.5,3.5,67,0.00,CLR,,0.00,WeatherDisplay:10.37,2013-05-29 14:32:00,
2013-05-29 09:37:00,74.8,62.7,26.69,East,90,5.8,0.0,66,0.00,CLR,,0.00,WeatherDisplay:10.37,2013-05-29 14:37:00,
2013-05-29 09:42:00,75.4,62.8,26.69,East,90,3.5,3.5,65,0.00,CLR,,0.00,WeatherDisplay:10.37,2013-05-29 14:42:00,
2013-05-29 09:47:00,75.6,63.0,26.68,NW,315,3.5,3.5,65,0.00,CLR,,0.00,WeatherDisplay:10.37,2013-05-29 14:47:00,
2013-05-29 09:53:00,76.1,63.5,26.68,West,270,3.5,3.5,65,0.00,CLR,,0.00,WeatherDisplay:10.37,2013-05-29 14:53:00,
2013-05-29 09:58:00,76.3,63.6,26.68,SE,135,3.5,3.5,65,0.00,CLR,,0.00,WeatherDisplay:10.37,2013-05-29 14:58:00,
2013-05-29 10:03:00,77.0,64.3,26.67,East,90,3.5,3.5,65,0.00,CLR,,0.00,WeatherDisplay:10.37,2013-05-29 15:03:00,
2013-05-29 10:08:00,77.4,64.2,26.67,NW,315,3.5,3.5,64,0.00,CLR,,0.00,WeatherDisplay:10.37,2013-05-29 15:08:00,
2013-05-29 10:13:00,77.2,64.1,26.67,NW,315,4.6,4.6,64,0.00,CLR,,0.00,WeatherDisplay:10.37,2013-05-29 15:13:00,
2013-05-29 10:19:00,77.4,64.7,26.67,South,180,1.1,1.1,65,0.00,CLR,,0.00,WeatherDisplay:10.37,2013-05-29 15:19:00,
2013-05-29 10:24:00,77.7,64.6,26.67,North,0,3.5,0.0,64,0.00,CLR,,0.00,WeatherDisplay:10.37,2013-05-29 15:24:00,
2013-05-29 10:29:00,77.7,64.1,26.67,North,0,1.1,0.0,63,0.00,CLR,,0.00,WeatherDisplay:10.37,2013-05-29 15:29:00,
2013-05-29 10:34:00,78.1,64.9,26.67,NW,315,4.6,4.6,64,0.00,CLR,,0.00,WeatherDisplay:10.37,2013-05-29 15:34:00,
2013-05-29 10:40:00,78.6,65.4,26.67,East,90,3.5,0.0,64,0.00,CLR,,0.00,WeatherDisplay:10.37,2013-05-29 15:40:00,
2013-05-29 10:45:00,79.5,65.4,26.67,NW,315,3.5,3.5,62,0.00,CLR,,0.00,WeatherDisplay:10.37,2013-05-29 15:45:00,
2013-05-29 10:50:00,79.7,65.5,26.67,South,180,5.8,5.8,62,0.00,CLR,,0.00,WeatherDisplay:10.37,2013-05-29 15:50:00,
2013-05-29 10:55:00,80.2,66.0,26.67,NE,45,3.5,0.0,62,0.00,CLR,,0.00,WeatherDisplay:10.37,2013-05-29 15:55:00,
2013-05-29 11:00:00,80.4,64.3,26.67,NW,315,3.5,0.0,58,0.00,CLR,,0.00,WeatherDisplay:10.37,2013-05-29 16:00:00,
2013-05-29 11:05:00,80.4,64.3,26.67,NW,315,1.1,0.0,58,0.00,CLR,,0.00,WeatherDisplay:10.37,2013-05-29 16:05:00,
2013-05-29 11:11:00,80.4,65.7,26.67,South,180,3.5,3.5,61,0.00,CLR,,0.00,WeatherDisplay:10.37,2013-05-29 16:11:00,
2013-05-29 11:16:00,80.2,65.1,26.67,NW,315,5.8,5.8,60,0.00,CLR,,0.00,WeatherDisplay:10.37,2013-05-29 16:16:00,
2013-05-29 11:21:00,78.4,63.4,26.67,North,0,4.6,4.6,60,0.00,CLR,,0.00,WeatherDisplay:10.37,2013-05-29 16:21:00,
2013-05-29 11:26:00,77.5,63.9,26.67,NW,315,4.6,4.6,63,0.00,CLR,,0.00,WeatherDisplay:10.37,2013-05-29 16:26:00,
2013-05-29 11:31:00,77.5,64.4,26.67,North,0,2.3,2.3,64,0.00,CLR,,0.00,WeatherDisplay:10.37,2013-05-29 16:31:00,
2013-05-29 11:36:00,78.3,64.6,26.67,NW,315,3.5,0.0,63,0.00,CLR,,0.00,WeatherDisplay:10.37,2013-05-29 16:36:00,
2013-05-29 11:41:00,79.0,64.4,26.67,NE,45,4.6,4.6,61,0.00,CLR,,0.00,WeatherDisplay:10.37,2013-05-29 16:41:00,
2013-05-29 11:46:00,79.7,64.6,26.67,NW,315,2.3,2.3,60,0.00,CLR,,0.00,WeatherDisplay:10.37,2013-05-29 16:46:00,
2013-05-29 11:52:00,80.6,64.5,26.66,North,0,3.5,3.5,58,0.00,CLR,,0.00,WeatherDisplay:10.37,2013-05-29 16:52:00,
2013-05-29 11:57:00,80.8,64.1,26.66,North,0,3.5,3.5,57,0.00,CLR,,0.00,WeatherDisplay:10.37,2013-05-29 16:57:00,
2013-05-29 12:02:00,82.2,64.4,26.66,West,270,5.8,5.8,55,0.00,CLR,,0.00,WeatherDisplay:10.37,2013-05-29 17:02:00,
2013-05-29 12:07:00,83.3,65.4,26.67,NW,315,4.6,4.6,55,0.00,CLR,,0.00,WeatherDisplay:10.37,2013-05-29 17:07:00,
2013-05-29 12:12:00,82.8,64.4,26.67,East,90,2.3,2.3,54,0.00,CLR,,0.00,WeatherDisplay:10.37,2013-05-29 17:12:00,
2013-05-29 12:17:00,84.4,65.9,26.67,NW,315,2.3,2.3,54,0.00,CLR,,0.00,WeatherDisplay:10.37,2013-05-29 17:17:00,
2013-05-29 12:22:00,85.3,65.1,26.67,North,0,5.8,5.8,51,0.00,CLR,,0.00,WeatherDisplay:10.37,2013-05-29 17:22:00,
2013-05-29 12:27:00,84.4,63.7,26.66,NW,315,3.5,0.0,50,0.00,CLR,,0.00,WeatherDisplay:10.37,2013-05-29 17:27:00,
2013-05-29 12:33:00,82.9,63.0,26.66,NW,315,4.6,4.6,51,0.00,CLR,,0.00,WeatherDisplay:10.37,2013-05-29 17:33:00,
2013-05-29 12:38:00,82.8,63.9,26.65,NE,45,4.6,4.6,53,0.00,CLR,,0.00,WeatherDisplay:10.37,2013-05-29 17:38:00,
2013-05-29 12:43:00,82.9,64.0,26.65,NE,45,1.1,0.0,53,0.00,CLR,,0.00,WeatherDisplay:10.37,2013-05-29 17:43:00,
2013-05-29 12:48:00,83.7,63.0,26.65,NNW,338,5.8,5.8,50,0.00,CLR,,0.00,WeatherDisplay:10.37,2013-05-29 17:48:00,
2013-05-29 12:53:00,82.9,64.0,26.65,North,0,1.1,1.6,53,0.00,CLR,,0.00,WeatherDisplay:10.37,2013-05-29 17:53:00,
2013-05-29 12:58:00,82.0,63.2,26.64,North,0,4.6,4.6,53,0.00,CLR,,0.00,WeatherDisplay:10.37,2013-05-29 17:58:00,
2013-05-29 13:03:00,81.9,63.1,26.64,North,0,3.5,3.5,53,0.00,CLR,,0.00,WeatherDisplay:10.37,2013-05-29 18:03:00,
2013-05-29 13:08:00,81.9,63.1,26.63,North,0,3.5,3.5,53,0.00,CLR,,0.00,WeatherDisplay:10.37,2013-05-29 18:08:00,
2013-05-29 13:14:00,83.7,65.3,26.63,NW,315,10.7,10.7,54,0.00,CLR,,0.00,WeatherDisplay:10.37,2013-05-29 18:14:00,
2013-05-29 13:19:00,83.7,64.2,26.62,North,0,6.9,6.9,52,0.00,CLR,,0.00,WeatherDisplay:10.37,2013-05-29 18:19:00,
2013-05-29 13:24:00,82.9,64.0,26.61,NW,315,6.9,6.9,53,0.00,CLR,,0.00,WeatherDisplay:10.37,2013-05-29 18:24:00,
2013-05-29 13:29:00,83.7,64.7,26.59,North,0,4.6,4.6,53,0.00,CLR,,0.00,WeatherDisplay:10.37,2013-05-29 18:29:00,
2013-05-29 13:34:00,83.5,64.5,26.59,NW,315,1.1,0.0,53,0.00,CLR,,0.00,WeatherDisplay:10.37,2013-05-29 18:34:00,
2013-05-29 13:40:00,82.6,63.2,26.59,North,0,3.5,3.5,52,0.00,CLR,,0.00,WeatherDisplay:10.37,2013-05-29 18:40:00,
2013-05-29 13:45:00,81.7,62.9,26.59,North,0,0.0,0.0,53,0.00,CLR,,0.00,WeatherDisplay:10.37,2013-05-29 18:45:00,
2013-05-29 13:50:00,80.4,63.8,26.57,NNW,338,4.6,4.6,57,0.00,CLR,,0.00,WeatherDisplay:10.37,2013-05-29 18:50:00,
2013-05-29 13:55:00,78.3,65.5,26.59,East,90,1.6,1.6,65,0.05,RA,,0.05,WeatherDisplay:10.37,2013-05-29 18:55:00,
2013-05-29 14:00:00,75.6,67.5,26.61,SW,225,3.5,3.5,76,0.20,RA,,0.20,WeatherDisplay:10.37,2013-05-29 19:00:00,
2013-05-29 14:05:00,73.2,65.9,26.59,East,90,2.3,2.3,78,0.25,RA,,0.26,WeatherDisplay:10.37,2013-05-29 19:05:00,
2013-05-29 14:10:00,71.6,65.5,26.59,SE,135,5.8,5.8,81,0.26,RA,,0.26,WeatherDisplay:10.37,2013-05-29 19:10:00,
2013-05-29 14:15:00,69.8,64.7,26.61,North,0,2.3,0.0,84,0.26,RA,,0.26,WeatherDisplay:10.37,2013-05-29 19:15:00,
2013-05-29 14:21:00,69.4,65.4,26.59,NW,315,1.1,1.1,87,0.27,RA,,0.27,WeatherDisplay:10.37,2013-05-29 19:21:00,
2013-05-29 14:26:00,69.1,65.7,26.60,West,270,4.6,4.6,89,0.27,,,0.27,WeatherDisplay:10.37,2013-05-29 19:26:00,
2013-05-29 14:31:00,68.5,65.2,26.63,SE,135,3.5,3.5,89,0.28,RA,,0.30,WeatherDisplay:10.37,2013-05-29 19:31:00,
2013-05-29 14:36:00,67.5,64.1,26.63,North,8,3.5,3.5,89,0.39,RA,,0.39,WeatherDisplay:10.37,2013-05-29 19:36:00,
2013-05-29 14:41:00,65.7,62.6,26.61,NW,315,5.8,5.8,90,0.41,RA,,0.41,WeatherDisplay:10.37,2013-05-29 19:41:00,
2013-05-29 14:46:00,63.9,59.9,26.59,NW,315,4.6,4.6,87,0.41,RA,,0.41,WeatherDisplay:10.37,2013-05-29 19:46:00,
2013-05-29 14:52:00,62.6,59.3,26.59,NW,315,5.8,5.8,89,0.40,CLR,,0.41,WeatherDisplay:10.37,2013-05-29 19:52:00,
2013-05-29 14:57:00,62.1,59.7,26.58,South,180,1.1,1.1,92,0.37,CLR,,0.41,WeatherDisplay:10.37,2013-05-29 19:57:00,
2013-05-29 15:02:00,62.1,60.0,26.61,NW,315,0.0,0.0,93,0.18,CLR,,0.41,WeatherDisplay:10.37,2013-05-29 20:02:00,
2013-05-29 15:07:00,61.7,59.4,26.61,North,0,8.1,8.1,92,0.15,CLR,,0.41,WeatherDisplay:10.37,2013-05-29 20:07:00,
2013-05-29 15:12:00,61.2,57.6,26.61,NNW,338,11.5,11.5,88,0.15,CLR,,0.43,WeatherDisplay:10.37,2013-05-29 20:12:00,
2013-05-29 15:17:00,60.4,56.6,26.64,NNW,338,6.9,6.9,87,0.17,RA,,0.44,WeatherDisplay:10.37,2013-05-29 20:17:00,
2013-05-29 15:23:00,60.4,56.6,26.61,NNW,338,6.9,6.9,87,0.17,RA,,0.44,WeatherDisplay:10.37,2013-05-29 20:23:00,
2013-05-29 15:28:00,59.0,55.8,26.61,NW,315,9.2,9.2,89,0.30,RA,,0.57,WeatherDisplay:10.37,2013-05-29 20:28:00,
2013-05-29 15:33:00,58.5,55.8,26.58,NW,315,5.8,5.8,91,0.26,RA,,0.58,WeatherDisplay:10.37,2013-05-29 20:33:00,
2013-05-29 15:38:00,58.6,56.0,26.57,North,0,9.2,9.2,91,0.17,RA,,0.58,WeatherDisplay:10.37,2013-05-29 20:38:00,
2013-05-29 15:43:00,60.1,58.0,26.54,NW,315,10.4,10.4,93,0.18,RA,,0.59,WeatherDisplay:10.37,2013-05-29 20:43:00,
2013-05-29 15:49:00,61.2,58.8,26.55,North,0,9.2,9.2,92,0.18,RA,,0.59,WeatherDisplay:10.37,2013-05-29 20:49:00,
2013-05-29 15:54:00,61.7,59.4,26.51,NW,315,10.4,10.4,92,0.18,CLR,,0.59,WeatherDisplay:10.37,2013-05-29 20:54:00,
2013-05-29 15:59:00,61.5,58.9,26.51,NW,315,3.5,3.5,91,0.18,CLR,,0.59,WeatherDisplay:10.37,2013-05-29 20:59:00,
2013-05-29 16:04:00,61.5,59.2,26.54,NW,315,12.7,12.7,92,0.18,CLR,,0.59,WeatherDisplay:10.37,2013-05-29 21:04:00,
2013-05-29 16:09:00,61.5,59.2,26.53,NW,315,10.4,10.4,92,0.18,CLR,,0.59,WeatherDisplay:10.37,2013-05-29 21:09:00,
2013-05-29 16:14:00,61.7,59.7,26.53,North,0,8.1,8.1,93,0.17,CLR,,0.59,WeatherDisplay:10.37,2013-05-29 21:14:00,
2013-05-29 16:19:00,61.9,60.1,26.54,North,0,11.5,11.5,94,0.15,CLR,,0.59,WeatherDisplay:10.37,2013-05-29 21:19:00,
2013-05-29 16:25:00,61.9,60.1,26.55,NW,315,8.1,8.1,94,0.04,CLR,,0.59,WeatherDisplay:10.37,2013-05-29 21:25:00,
2013-05-29 16:30:00,62.1,60.0,26.55,NW,315,5.8,5.8,93,0.02,CLR,,0.59,WeatherDisplay:10.37,2013-05-29 21:30:00,
2013-05-29 16:35:00,62.1,60.3,26.52,NNW,338,5.8,5.8,94,0.01,CLR,,0.59,WeatherDisplay:10.37,2013-05-29 21:35:00,
2013-05-29 16:40:00,62.2,60.5,26.51,NW,315,5.8,5.8,94,0.01,CLR,,0.59,WeatherDisplay:10.37,2013-05-29 21:40:00,
2013-05-29 16:45:00,62.4,60.7,26.57,South,180,1.1,1.1,94,0.00,CLR,,0.59,WeatherDisplay:10.37,2013-05-29 21:45:00,
2013-05-29 16:51:00,62.4,60.7,26.58,East,90,1.1,1.1,94,0.00,CLR,,0.59,WeatherDisplay:10.37,2013-05-29 21:51:00,
2013-05-29 16:56:00,62.4,60.7,26.58,North,0,5.8,5.8,94,0.00,CLR,,0.59,WeatherDisplay:10.37,2013-05-29 21:56:00,
2013-05-29 17:01:00,62.4,60.4,26.61,East,90,2.3,2.3,93,0.00,CLR,,0.59,WeatherDisplay:10.37,2013-05-29 22:01:00,
2013-05-29 17:06:00,62.2,60.2,26.64,NW,315,2.3,0.0,93,0.00,CLR,,0.59,WeatherDisplay:10.37,2013-05-29 22:06:00,
2013-05-29 17:11:00,62.1,60.0,26.65,North,0,2.3,2.3,93,0.00,CLR,,0.59,WeatherDisplay:10.37,2013-05-29 22:11:00,
2013-05-29 17:16:00,62.1,60.0,26.65,East,90,3.5,3.5,93,0.01,RA,,0.60,WeatherDisplay:10.37,2013-05-29 22:16:00,
2013-05-29 17:21:00,62.1,60.0,26.65,East,90,3.5,3.5,93,0.01,RA,,0.60,WeatherDisplay:10.37,2013-05-29 22:21:00,
2013-05-29 17:26:00,61.2,58.8,26.64,SE,135,2.3,2.3,92,0.01,,,0.60,WeatherDisplay:10.37,2013-05-29 22:26:00,
2013-05-29 17:31:00,60.8,58.8,26.63,North,0,1.1,0.0,93,0.01,CLR,,0.60,WeatherDisplay:10.37,2013-05-29 22:31:00,
2013-05-29 17:36:00,60.4,58.7,26.63,WNW,292,1.1,1.6,94,0.01,CLR,,0.60,WeatherDisplay:10.37,2013-05-29 22:36:00,
2013-05-29 17:42:00,60.1,58.3,26.61,NW,315,3.5,3.5,94,0.01,CLR,,0.60,WeatherDisplay:10.37,2013-05-29 22:42:00,
2013-05-29 17:47:00,60.1,58.3,26.62,NW,315,3.5,3.5,94,0.01,CLR,,0.60,WeatherDisplay:10.37,2013-05-29 22:47:00,
2013-05-29 17:52:00,60.1,58.3,26.63,NNE,14,3.5,3.5,94,0.01,CLR,,0.60,WeatherDisplay:10.37,2013-05-29 22:52:00,
2013-05-29 17:57:00,59.5,58.1,26.65,South,180,3.5,3.5,95,0.02,RA,,0.61,WeatherDisplay:10.37,2013-05-29 22:57:00,
2013-05-29 18:03:00,59.5,58.1,26.65,South,180,3.5,3.5,95,0.02,RA,,0.61,WeatherDisplay:10.37,2013-05-29 23:03:00,
2013-05-29 18:08:00,59.5,58.1,26.67,South,180,3.5,3.5,95,0.02,CLR,,0.61,WeatherDisplay:10.37,2013-05-29 23:08:00,
2013-05-29 18:13:00,59.5,58.1,26.63,North,0,3.5,3.5,95,0.02,CLR,,0.61,WeatherDisplay:10.37,2013-05-29 23:13:00,
2013-05-29 18:18:00,59.7,58.6,26.64,North,0,5.8,5.8,96,0.05,RA,,0.65,WeatherDisplay:10.37,2013-05-29 23:18:00,
2013-05-29 18:23:00,59.7,58.6,26.67,North,0,5.8,5.8,96,0.05,RA,,0.65,WeatherDisplay:10.37,2013-05-29 23:23:00,
2013-05-29 18:28:00,59.7,58.6,26.67,North,0,5.8,5.8,96,0.05,CLR,,0.65,WeatherDisplay:10.37,2013-05-29 23:28:00,
2013-05-29 18:33:00,59.4,58.8,26.61,NW,315,4.6,6.9,98,0.08,RA,,0.69,WeatherDisplay:10.37,2013-05-29 23:33:00,
2013-05-29 18:38:00,59.4,58.8,26.63,NW,315,8.1,8.1,98,0.08,RA,,0.69,WeatherDisplay:10.37,2013-05-29 23:38:00,
2013-05-29 18:44:00,59.4,58.8,26.65,NNE,14,8.1,8.1,98,0.08,CLR,,0.69,WeatherDisplay:10.37,2013-05-29 23:44:00,
2013-05-29 18:49:00,59.4,59.1,26.67,NW,315,8.1,0.0,99,0.11,RA,,0.71,WeatherDisplay:10.37,2013-05-29 23:49:00,
2013-05-29 18:54:00,59.4,59.1,26.71,SW,225,2.3,2.3,99,0.12,RA,,0.72,WeatherDisplay:10.37,2013-05-29 23:54:00,
2013-05-29 18:59:00,59.4,59.1,26.73,WSW,248,5.4,5.4,99,0.11,RA,,0.72,WeatherDisplay:10.37,2013-05-29 23:59:00,
2013-05-29 19:04:00,59.4,59.1,26.73,North,0,3.5,3.5,99,0.11,,,0.72,WeatherDisplay:10.37,2013-05-30 00:04:00,
2013-05-29 19:09:00,58.5,58.2,26.73,East,90,4.6,4.6,99,0.14,RA,,0.76,WeatherDisplay:10.37,2013-05-30 00:09:00,
2013-05-29 19:14:00,57.0,56.7,26.71,South,180,10.4,10.4,99,0.17,RA,,0.81,WeatherDisplay:10.37,2013-05-30 00:14:00,
2013-05-29 19:20:00,57.0,56.7,26.71,South,180,10.4,10.4,99,0.17,RA,,0.81,WeatherDisplay:10.37,2013-05-30 00:20:00,
2013-05-29 19:25:00,56.3,55.7,26.71,WNW,292,5.8,5.8,98,0.21,RA,,0.86,WeatherDisplay:10.37,2013-05-30 00:25:00,
2013-05-29 19:30:00,56.3,55.7,26.71,West,270,3.5,3.5,98,0.24,RA,,0.89,WeatherDisplay:10.37,2013-05-30 00:30:00,
2013-05-29 19:35:00,56.3,55.7,26.70,NW,315,3.5,4.5,98,0.20,RA,,0.89,WeatherDisplay:10.37,2013-05-30 00:35:00,
2013-05-29 19:40:00,56.8,56.3,26.69,North,0,6.9,6.9,98,0.20,CLR,,0.90,WeatherDisplay:10.37,2013-05-30 00:40:00,
2013-05-29 19:46:00,56.8,56.3,26.67,North,0,5.8,5.8,98,0.21,RA,,0.90,WeatherDisplay:10.37,2013-05-30 00:46:00,
2013-05-29 19:51:00,57.2,56.1,26.64,NW,315,12.7,12.7,96,0.20,RA,,0.91,WeatherDisplay:10.37,2013-05-30 00:51:00,
2013-05-29 19:56:00,57.4,56.0,26.61,NNW,338,15.0,15.0,95,0.20,RA,,0.92,WeatherDisplay:10.37,2013-05-30 00:56:00,
2013-05-29 20:01:00,57.2,55.5,26.61,North,0,12.7,12.7,94,0.21,RA,,0.93,WeatherDisplay:10.37,2013-05-30 01:01:00,
2013-05-29 20:06:00,57.0,55.6,26.61,NW,315,15.0,15.0,95,0.18,RA,,0.93,WeatherDisplay:10.37,2013-05-30 01:06:00,
2013-05-29 20:11:00,57.0,55.6,26.60,SW,225,9.2,9.2,95,0.18,CLR,,0.93,WeatherDisplay:10.37,2013-05-30 01:11:00,
2013-05-29 20:16:00,57.2,55.5,26.61,NW,315,10.4,10.4,94,0.12,CLR,,0.93,WeatherDisplay:10.37,2013-05-30 01:16:00,
2013-05-29 20:22:00,57.4,55.4,26.61,NE,45,8.1,8.1,93,0.07,CLR,,0.93,WeatherDisplay:10.37,2013-05-30 01:22:00,
2013-05-29 20:27:00,57.4,55.4,26.62,NNW,338,10.4,10.4,93,0.06,CLR,,0.93,WeatherDisplay:10.37,2013-05-30 01:27:00,
2013-05-29 20:32:00,57.4,55.4,26.63,NW,315,8.1,0.0,93,0.05,CLR,,0.93,WeatherDisplay:10.37,2013-05-30 01:32:00,
2013-05-29 20:37:00,57.4,55.4,26.63,East,90,8.1,8.1,93,0.05,CLR,,0.93,WeatherDisplay:10.37,2013-05-30 01:37:00,
2013-05-29 20:42:00,57.2,55.2,26.64,NW,315,3.5,3.5,93,0.04,CLR,,0.93,WeatherDisplay:10.37,2013-05-30 01:42:00,
2013-05-29 20:47:00,57.0,55.3,26.65,SW,225,6.9,6.9,94,0.04,CLR,,0.93,WeatherDisplay:10.37,2013-05-30 01:47:00,
2013-05-29 20:52:00,57.0,55.6,26.68,North,0,2.3,2.3,95,0.02,CLR,,0.93,WeatherDisplay:10.37,2013-05-30 01:52:00,
2013-05-29 20:58:00,56.8,55.4,26.67,NW,315,3.5,3.5,95,0.01,CLR,,0.93,WeatherDisplay:10.37,2013-05-30 01:58:00,
2013-05-29 21:03:00,57.0,55.6,26.67,NW,315,9.2,9.2,95,0.00,CLR,,0.93,WeatherDisplay:10.37,2013-05-30 02:03:00,
2013-05-29 21:08:00,57.0,55.6,26.66,NW,315,10.4,10.4,95,0.00,CLR,,0.93,WeatherDisplay:10.37,2013-05-30 02:08:00,
2013-05-29 21:13:00,56.8,55.1,26.66,NNW,338,6.0,6.0,94,0.00,CLR,,0.93,WeatherDisplay:10.37,2013-05-30 02:13:00,
2013-05-29 21:18:00,56.7,55.0,26.66,NW,315,8.1,8.1,94,0.00,CLR,,0.93,WeatherDisplay:10.37,2013-05-30 02:18:00,
2013-05-29 21:23:00,56.7,55.0,26.68,NW,315,6.9,6.9,94,0.00,CLR,,0.93,WeatherDisplay:10.37,2013-05-30 02:23:00,
2013-05-29 21:29:00,56.5,55.1,26.71,SW,225,3.5,3.5,95,0.00,CLR,,0.93,WeatherDisplay:10.37,2013-05-30 02:29:00,
2013-05-29 21:34:00,56.3,54.9,26.68,North,0,3.5,3.5,95,0.00,CLR,,0.93,WeatherDisplay:10.37,2013-05-30 02:34:00,
2013-05-29 21:39:00,56.1,54.7,26.69,South,180,6.9,6.9,95,0.00,CLR,,0.93,WeatherDisplay:10.37,2013-05-30 02:39:00,
2013-05-29 21:44:00,56.1,54.7,26.70,North,0,1.1,0.0,95,0.00,CLR,,0.93,WeatherDisplay:10.37,2013-05-30 02:44:00,
2013-05-29 21:49:00,55.9,54.5,26.70,NW,315,3.5,0.0,95,0.00,CLR,,0.93,WeatherDisplay:10.37,2013-05-30 02:49:00,
2013-05-29 21:55:00,55.9,54.5,26.71,NW,315,0.0,0.0,95,0.00,CLR,,0.93,WeatherDisplay:10.37,2013-05-30 02:55:00,
2013-05-29 22:00:00,55.9,54.5,26.72,SE,135,0.0,0.0,95,0.00,CLR,,0.93,WeatherDisplay:10.37,2013-05-30 03:00:00,
2013-05-29 22:05:00,55.9,54.8,26.72,East,90,1.1,0.0,96,0.00,CLR,,0.93,WeatherDisplay:10.37,2013-05-30 03:05:00,
2013-05-29 22:10:00,55.8,54.6,26.72,NW,315,1.1,0.0,96,0.00,CLR,,0.93,WeatherDisplay:10.37,2013-05-30 03:10:00,
2013-05-29 22:15:00,55.8,54.6,26.72,North,0,3.5,3.5,96,0.00,CLR,,0.93,WeatherDisplay:10.37,2013-05-30 03:15:00,
2013-05-29 22:20:00,55.8,54.9,26.72,North,0,1.1,0.0,97,0.00,CLR,,0.93,WeatherDisplay:10.37,2013-05-30 03:20:00,
2013-05-29 22:26:00,55.8,54.9,26.72,NW,315,0.0,0.0,97,0.00,CLR,,0.93,WeatherDisplay:10.37,2013-05-30 03:26:00,
2013-05-29 22:31:00,55.8,54.9,26.72,NW,315,0.0,0.0,97,0.00,CLR,,0.93,WeatherDisplay:10.37,2013-05-30 03:31:00,
2013-05-29 22:36:00,55.8,54.9,26.73,NW,315,0.0,0.0,97,0.00,CLR,,0.93,WeatherDisplay:10.37,2013-05-30 03:36:00,
2013-05-29 22:41:00,55.6,54.7,26.73,NW,315,0.0,0.0,97,0.00,CLR,,0.93,WeatherDisplay:10.37,2013-05-30 03:41:00,
2013-05-29 22:46:00,55.6,54.7,26.74,NW,315,0.0,0.0,97,0.00,CLR,,0.93,WeatherDisplay:10.37,2013-05-30 03:46:00,
2013-05-29 22:52:00,55.4,54.6,26.74,NW,315,0.0,0.0,97,0.00,CLR,,0.93,WeatherDisplay:10.37,2013-05-30 03:52:00,
2013-05-29 22:57:00,55.2,54.4,26.75,NW,315,0.0,0.0,97,0.00,CLR,,0.93,WeatherDisplay:10.37,2013-05-30 03:57:00,
2013-05-29 23:01:00,55.2,54.4,26.75,NW,315,0.0,0.0,97,0.00,CLR,,0.93,WeatherDisplay:10.37,2013-05-30 04:01:00,
2013-05-29 23:02:00,55.2,54.4,26.75,NW,315,0.0,0.0,97,0.00,CLR,,0.93,WeatherDisplay:10.37,2013-05-30 04:02:00,
2013-05-29 23:07:00,55.0,54.2,26.75,NW,315,0.0,0.0,97,0.00,CLR,,0.93,WeatherDisplay:10.37,2013-05-30 04:07:00,
2013-05-29 23:12:00,54.9,54.0,26.75,NW,315,0.0,0.0,97,0.00,CLR,,0.93,WeatherDisplay:10.37,2013-05-30 04:12:00,
2013-05-29 23:17:00,54.7,53.8,26.75,NW,315,0.0,0.0,97,0.00,CLR,,0.93,WeatherDisplay:10.37,2013-05-30 04:17:00,
2013-05-29 23:23:00,54.7,53.8,26.76,East,90,1.1,0.0,97,0.00,CLR,,0.93,WeatherDisplay:10.37,2013-05-30 04:23:00,
2013-05-29 23:28:00,54.5,53.7,26.76,South,180,1.1,0.0,97,0.00,CLR,,0.93,WeatherDisplay:10.37,2013-05-30 04:28:00,
2013-05-29 23:33:00,54.3,53.5,26.75,South,180,0.0,0.0,97,0.00,CLR,,0.93,WeatherDisplay:10.37,2013-05-30 04:33:00,
2013-05-29 23:38:00,54.3,53.5,26.75,South,180,0.0,0.0,97,0.00,CLR,,0.93,WeatherDisplay:10.37,2013-05-30 04:38:00,
2013-05-29 23:44:00,54.1,53.3,26.75,NW,315,1.1,0.0,97,0.00,CLR,,0.93,WeatherDisplay:10.37,2013-05-30 04:44:00,
2013-05-29 23:49:00,54.1,53.3,26.75,North,0,0.0,0.0,97,0.00,CLR,,0.93,WeatherDisplay:10.37,2013-05-30 04:49:00,
2013-05-29 23:54:00,54.0,53.1,26.74,North,0,0.0,0.0,97,0.00,CLR,,0.93,WeatherDisplay:10.37,2013-05-30 04:54:00,
2013-05-29 23:59:00,54.0,53.1,26.74,North,0,0.0,0.0,97,0.00,CLR,,0.93,WeatherDisplay:10.37,2013-05-30 04:59:00,